Regional Weather Roundup
Issued by NWS

Home | Current Version | Previous Version | Text Only | Print | Product List | Glossary On
Versions: 1 2 3 4 5 6 7 8 9 10 11 12 13 14 15 16 17 18 19 20 21 22 23 24 25 26 27 28 29 30 31 32 33 34 35 36 37 38 39 40 41 42 43 44 45 46 47 48 49 50
000
ASUS43 KMKX 071521
RWRWI

WISCONSIN REGIONAL WEATHER ROUNDUP
NATIONAL WEATHER SERVICE MILWAUKEE/SULLIVAN WI
900 AM CST WED DEC 07 2016

NOTE: "FAIR" INDICATES FEW OR NO CLOUDS BELOW 12,000 FEET WITH NO
SIGNIFICANT WEATHER AND/OR OBSTRUCTIONS TO VISIBILITY.

WIZ001-002-006>008-014>016-023>028-071600-
NORTHWEST WISCONSIN

CITY           SKY/WX    TMP DP  RH WIND       PRES   REMARKS
SUPERIOR ARPT  CLOUDY    18  11  74 W20       29.81R WCI   2
ASHLAND        LGT SNOW  18  12  77 SW21G33   29.79R WCI   1
HAYWARD        LGT SNOW  16   9  74 SW13G23   29.83R WCI   2
SIREN          FLURRIES  17   9  72 W18G25    29.90R WCI   0
CUMBERLAND     FLURRIES  18  10  73 W14G29    29.89R WCI   4
RICE LAKE      FLURRIES  17  11  75 SW13G20   29.93R WCI   4
CHETEK         FLURRIES  17  10  74 W8        29.92R WCI   7
LADYSMITH      LGT SNOW  18  12  77 SW20G26   29.88S WCI   2
EAU CLAIRE     LGT SNOW  17  11  77 SW16G24   29.95R WCI   2
MENOMONIE      FLURRIES  19  12  76 SW20G26   29.97R WCI   2
NEW RICHMOND   FLURRIES  18  10  71 W18G30    29.95R WCI   2
OSCEOLA        CLOUDY    19  11  72 W13       29.99R WCI   6
$$

WIZ003>005-009-010-017-018-071600-
NORTH CENTRAL WISCONSIN

CITY           SKY/WX    TMP DP  RH WIND       PRES   REMARKS
MANITOWISH WTR LGT SNOW  15  11  84 SW17      29.74R WCI  -2
ARBOR VITAE    LGT SNOW  17  11  74 W21G28    29.77R WCI   1
WOODRUFF       LGT SNOW  17  11  74 W21G28    29.77R WCI   1
RHINELANDER    LGT SNOW  17  12  80 SW17G29   29.78S WCI   1
EAGLE RIVER    LGT SNOW  17  10  74 W17G28    29.74R WCI   1
LAND O LAKES   LGT SNOW  18  12  78 SW13G25   29.73R WCI   5
PHILLIPS       LGT SNOW  15  11  83 SW14G24   29.80S WCI   1
TOMAHAWK       LGT SNOW  16  10  80 W9G16     29.83R WCI   4
MEDFORD        LGT SNOW  14   9  79 W16G23    29.86R WCI  -2
MERRILL        LGT SNOW  17  11  78 W20G28    29.87R WCI   0
$$

WIZ029-030-035-036-043>047-071600-
CENTRAL WISCONSIN

CITY           SKY/WX    TMP DP  RH WIND       PRES   REMARKS
WAUSAU         LGT SNOW  16  11  80 W17       29.88R WCI   0
MOSINEE        NOT AVBL
MARSHFIELD     FLURRIES  16  10  77 W17G28    29.90S WCI   0
STEVENS POINT  FLURRIES  16  10  79 W15G28    29.93S WCI   1
WAUPACA        PTSUNNY   22  14  71 SW20G29   29.95S WCI   7
WAUTOMA        FLURRIES  19  12  74 W17       29.98R WCI   4
WISC RAPIDS    CLOUDY    18  12  77 W15G22    29.96R WCI   4
CAMP DOUGLAS   CLOUDY    18  12  79 W20       29.99S WCI   1
$$

WIZ011>013-019>022-031-037>040-048>050-071600-
NORTHEAST WISCONSIN

CITY           SKY/WX    TMP DP  RH WIND       PRES   REMARKS
ANTIGO         LGT SNOW  15  10  81 W20G28    29.83R WCI  -2
SHAWANO        CLOUDY    23  14  68 W13G30    29.91R WCI  11
OCONTO         CLOUDY    22  13  66 W16G26    29.89R WCI   9
STURGEON BAY   CLOUDY    23  15  71 W16G25    29.88R WCI  10
GREEN BAY      NOT AVBL
MANITOWOC      CLOUDY    23  16  74 W22       29.94R WCI   8
APPLETON       CLOUDY    19  12  73 W16G24    29.92R WCI   5
CLINTONVILLE   CLOUDY    21  12  68 W14G23    29.92R WCI   8
OSHKOSH        MOSUNNY   20  12  71 W14G25    29.95S WCI   7
$$

WIZ032>034-041-042-053>061-071600-
SOUTHWEST WISCONSIN

CITY           SKY/WX    TMP DP  RH WIND       PRES   REMARKS
LA CROSSE      CLOUDY    19  10  68 SW13G18   30.07R WCI   6
SPARTA         CLOUDY    18  12  78 W13G18    30.02S WCI   5
VIROQUA        CLOUDY    15  10  78 W14G21    30.02S WCI   1
BOSCOBEL       NOT AVBL
PRAIRIE DU CHI FLURRIES  18  10  70 W13G18    30.12R WCI   4
PLATTEVILLE    CLOUDY    18  13  80 W15       30.08S WCI   4
$$

WIZ056-057-062-063-064-067-068-071600-
SOUTH CENTRAL WISCONSIN

CITY           SKY/WX    TMP DP  RH WIND       PRES   REMARKS
REEDSBURG      MOSUNNY   18  11  76 W15       30.02S WCI   3
BARABOO/DELLS  CLOUDY    17  11  77 W13G20    30.01R WCI   4
LONE ROCK      NOT AVBL
MINERAL POINT  CLOUDY    19  14  79 W13       30.04R WCI   7
MADISON        CLOUDY    19  12  74 SW9       30.03R WCI   8
MIDDLETON      NOT AVBL
WATERTOWN      CLOUDY    20  15  81 SW12G18   30.01S WCI   8
MONROE         MOSUNNY   19  14  79 W20       30.04S WCI   4
JANESVILLE     PTSUNNY   23  18  80 W15G21    30.05S WCI  10
$$

WIZ051-052-058>065-066-070>072-071600-
SOUTHEAST WISCONSIN

CITY           SKY/WX    TMP DP  RH WIND       PRES   REMARKS
MILWAUKEE      PTSUNNY   24  15  68 W16G26    30.01S WCI  11
WAUKESHA       SUNNY     19  14  79 SW16G29   30.01R WCI   5
MILWAUKEE/TIMM SUNNY     21  14  73 W15       30.01R WCI   8
RACINE         PTSUNNY   23  15  71 W10G22    30.03S WCI  12
BURLINGTON     MOSUNNY   22  16  78 W13       30.04R WCI  10
KENOSHA        NOT AVBL
FOND DU LAC    MOSUNNY   21  12  68 W18G25    29.98R WCI   6
SHEBOYGAN      MOSUNNY   23  15  71 W20G31    29.95R WCI   8
WEST BEND      SUNNY     23  18  80 W13       29.98R WCI  11
JUNEAU         CLOUDY    19  13  78 SW17      30.01S WCI   4
$$

LSZ147-162-071600-
LAKE SUPERIOR

STATION/POSITION TIME  TEMP    WIND        PRES    WAVE
                       AIR SEA DIR/SP/G            HT/PER
                 (UTC) (F)     (DEG/KT/KT) (MB)    (FT/S)
DEVILS ISLAND    1400   25     250/ 36/ 44 1006.1R
PORT WING        1449   20     230/ 13/ 25 1008.8R
SAXON HARBOR     1440   20     210/ 13/ 19 1008.5R
$$

LMZ867-665-643>646-071600-
LAKE MICHIGAN

STATION/POSITION TIME  TEMP    WIND        PRES    WAVE
                       AIR SEA DIR/SP/G            HT/PER
                 (UTC) (F)     (DEG/KT/KT) (MB)    (FT/S)
CHAMBERS ISLAND  1440   24     220/ 11/ 21 1010.2S
NORTHPORT PIER   1444   25     230/  8/ 19 1010.5R
SISTER BAY       1354   27     280/ 25/ 28   N/A
ALGOMA LAKESHORE 1436          270/ 18/ 26   N/A
KEWAUNEE LAKESHO 1454   23     330/ 19/ 26 1012.5R
SHEBOYGAN LAKESH 1500   23     260/ 16/ 19 1015.2R
PORT WASHINGTON  1430   24     270/ 10/ 18 1016.3R
MILWAUKEE LAKESH 1450   24     260/ 15/ 18   N/A
KENOSHA   LAKESH 1500   23     250/ 14/ 17 1017.3
$$

TC  - TEMPERATURE IN CELSIUS
VSB - VISIBILITY IN STATUTE MILES
WCI - WIND CHILL INDEX
HX  - HEAT INDEX





USA.gov is the U.S. government's official web portal to all federal, state and local government web resources and services.